Fes-Sais, Morocco

8:00 AM WET on June 29, 2017 (GMT +0000)
Fes-Sais

Weather History for GMFF - November, 2013

Change the Weather History Date:

Thursday, November 14, 2013

  Actual Average Record
Temperature  
Mean Temperature 58 °F -  
Max Temperature 72 °F 62 °F 76 °F (2014)
Min Temperature 45 °F 43 °F 39 °F (2008)
Degree Days  
Heating Degree Days 6    
Growing Degree Days 8 (Base 50)    
Moisture  
Dew Point 40 °F    
Average Humidity 47    
Maximum Humidity 66    
Minimum Humidity 22    
Precipitation  
Precipitation 0.00 in 0.11 in - ()
Sea Level Pressure  
Sea Level Pressure 30.10 in    
Wind  
Wind Speed 6 mph ()    
Max Wind Speed 17 mph    
Max Gust Speed 37 mph    
Visibility 6.1 miles    
Events      
Averages and records for this station are not official NWS values.
T = Trace of Precipitation, MM = Missing Value Source: Averaged Metar Reports

Daily Weather History Graph

Daily Weather History Graph

Search for Another Location

Airport or City:

Trip Planner

Search our weather history database for the weather conditions in past years. The results will help you decide how hot, cold, wet, or windy it might be!

Date:

Astronomy

Nov. 14, 2013 Rise Set
Actual Time 6:51 AM WET 5:17 PM WET
Civil Twilight 6:24 AM WET 5:43 PM WET
Nautical Twilight 5:54 AM WET 6:13 PM WET
Astronomical Twilight 5:25 AM WET 6:43 PM WET
Moon 3:23 PM WET (11/14) 3:40 AM WET (11/14)
Length of Visible Light 11h 18m
Length of Day
10h 25m
Waxing Gibbous, 90% of the Moon is Illuminated
Nov 14
Waxing Gibbous
Nov 17
Full
Nov 25
Last Quarter
Dec 3
New
Dec 9
First Quarter

Hourly Weather History & Observations

Time (WET) Temp. Windchill Dew Point Humidity Pressure Visibility Wind Dir Wind Speed Gust Speed Precip Events Conditions
12:00 AM 50 °F - 36 °F 46% 30.12 in 6 mi WSW 3.5 mph - -   Scattered Clouds
12:00 AM 50.0 °F - 35.6 °F 58% 30.09 in 6.2 mi SW 4.6 mph - N/A   Scattered Clouds
1:00 AM 51.8 °F - 37.4 °F 58% 30.09 in 6.2 mi WSW 4.6 mph - N/A   Scattered Clouds
2:00 AM 50.0 °F - 37.4 °F 62% 30.09 in 6.2 mi WSW 2.3 mph - N/A   Scattered Clouds
3:00 AM 53 °F - 37 °F 43% 30.11 in 6 mi SSE 6.9 mph - -   Partly Cloudy
3:00 AM 51.8 °F - 37.4 °F 58% 30.09 in 6.2 mi SSE 6.9 mph - N/A   Scattered Clouds
4:00 AM 51.8 °F - 35.6 °F 54% 30.09 in 6.2 mi NE 3.5 mph - N/A   Scattered Clouds
5:00 AM 48.2 °F - 35.6 °F 62% 30.06 in 6.2 mi Variable 4.6 mph - N/A   Partly Cloudy
6:00 AM 45 °F - 35 °F 57% 30.13 in 6 mi South 4.6 mph - -   Partly Cloudy
6:00 AM 46.4 °F 45.2 °F 35.6 °F 66% 30.06 in 6.2 mi Variable 3.5 mph - N/A   Scattered Clouds
7:00 AM 46.4 °F - 33.8 °F 62% 30.09 in 6.2 mi Calm Calm - N/A   Partly Cloudy
8:00 AM 53.6 °F - 37.4 °F 54% 30.12 in 6.2 mi SE 4.6 mph - N/A   Partly Cloudy
9:00 AM 60 °F - 42 °F 40% 30.13 in 6 mi ENE 10.4 mph - -   Scattered Clouds
9:00 AM 60.8 °F - 42.8 °F 52% 30.12 in 6.2 mi ENE 10.4 mph - N/A   Partly Cloudy
10:00 AM 64.4 °F - 41.0 °F 42% 30.15 in 6.2 mi ENE 6.9 mph - N/A   Partly Cloudy
11:00 AM 66.2 °F - 41.0 °F 40% 30.12 in 6.2 mi ENE 8.1 mph - N/A   Partly Cloudy
12:00 PM 70 °F - 42 °F 24% 30.07 in 25 mi NE 9.2 mph - -   Scattered Clouds
12:00 PM 69.8 °F - 41.0 °F 35% 30.09 in 6.2 mi NE 9.2 mph - N/A   Partly Cloudy
12:30 PM 69.8 °F - 41.0 °F 35% 30.09 in 6.2 mi NE 9.2 mph - N/A   Partly Cloudy
1:00 PM 69.8 °F - 42.8 °F 38% 30.09 in 6.2 mi NNE 10.4 mph - N/A   Partly Cloudy
2:00 PM 71.6 °F - 44.6 °F 38% 30.09 in 6.2 mi ENE 12.7 mph - N/A   Partly Cloudy
3:00 PM 70 °F - 40 °F 22% 30.01 in 6 mi NE 13.8 mph - -   Overcast
3:00 PM 69.8 °F - 41.0 °F 35% 30.06 in 6.2 mi NE 13.8 mph - N/A   Partly Cloudy
4:30 PM 69.8 °F - 42.8 °F 38% 30.06 in 6.2 mi NE 11.5 mph - N/A   Partly Cloudy
5:00 PM 68.0 °F - 44.6 °F 43% 30.09 in 6.2 mi ENE 13.8 mph - N/A   Partly Cloudy
6:00 PM 64 °F - 43 °F 35% 30.09 in 6 mi ENE 17.3 mph - -   Scattered Clouds
6:00 PM 62.6 °F - 42.8 °F 48% 30.09 in 6.2 mi ENE 15.0 mph 36.8 mph N/A   Partly Cloudy
7:00 PM 60.8 °F - 42.8 °F 52% 30.12 in 6.2 mi East 8.1 mph - N/A   Partly Cloudy
8:00 PM 59.0 °F - 42.8 °F 55% 30.12 in - ENE 8.1 mph 33.4 mph N/A   Clear
9:00 PM 59 °F - 44 °F 45% 30.14 in 6 mi ENE 11.5 mph - -  
9:00 PM 59.0 °F - 42.8 °F 55% 30.15 in - ENE 10.4 mph 23.0 mph N/A   Clear
11:00 PM 57.2 °F - 44.6 °F 63% 30.15 in - ENE 11.5 mph - N/A   Clear